Regional Weather Roundup
Issued by NWS

Home | Current Version | Previous Version | Text Only | Print | Product List | Glossary Off
Versions: 1 2 3 4 5 6 7 8 9 10 11 12 13 14 15 16 17 18 19 20 21 22 23 24 25 26 27 28 29 30 31 32 33 34 35 36 37 38 39 40 41 42 43 44 45 46 47 48 49 50

000
ASUS43 KMPX 302201
RWRMN
WEATHER ROUNDUP FOR MINNESOTA
NATIONAL WEATHER SERVICE TWIN CITIES/CHANHASSEN MN
500 PM CDT SAT MAY 30 2015


NOTE: "FAIR" INDICATES FEW OR NO CLOUDS BELOW 12,000 FEET WITH NO
SIGNIFICANT WEATHER AND/OR OBSTRUCTIONS TO VISIBILITY. N/A MEANS
CURRENT SKY AND/OR WEATHER CONDITIONS ARE NOT AVAILABLE.

MNZ060>063-068>070-302300-
   Twin Cities Metro

CITY           SKY/WX    TMP DP  RH WIND       PRES   REMARKS
TWIN CITIES    MOSUNNY   63  40  42 N13       30.23S
ST PAUL        MOSUNNY   63  43  48 NE14      30.23F
CRYSTAL        MOSUNNY   65  41  41 N9        30.22F
LAKEVILLE      SUNNY     61  43  51 NE8       30.22S
EDEN PRAIRIE   SUNNY     63  42  46 NE12      30.22S
SOUTH ST PAUL  SUNNY     63  39  41 N10G16    30.23S
LAKE ELMO      FAIR      61  43  51 N6        30.24S
$$
MNZ001>005-007-008-013>017-022>024-027-028-302300-
   Northwest Minnesota

CITY           SKY/WX    TMP DP  RH WIND       PRES   REMARKS
BEMIDJI        SUNNY     55  32  42 N8        30.30F
HALLOCK        SUNNY     55  25  30 E5        30.35S
ROSEAU         MOSUNNY   55  34  44 E8        30.35S
WARROAD        MOSUNNY   50  34  53 E9        30.37S
THIEF RVR FALL SUNNY     54  30  40 E10       30.33F
CROOKSTON      SUNNY     55  32  41 E9        30.33F
FOSSTON        SUNNY     57  34  41 NE9       30.32S
DETROIT LAKES  SUNNY     59  30  33 NE3       30.29S
MOORHEAD       SUNNY     55  34  44 NE12      30.31F
PARK RAPIDS    SUNNY     59  25  27 NE8       30.28F
MAHNOMEN       FAIR      56  29  35 E10G21    30.29F
$$
MNZ006-009>011-018-025>026-302300-
   North Central Minnesota

CITY           SKY/WX    TMP DP  RH WIND       PRES   REMARKS
BAUDETTE       SUNNY     52  33  48 NW9       30.34F
FLAG ISLAND    SUNNY     50  25  37 NE5       30.35S
INTL FALLS     SUNNY     53  29  39 VRB5      30.34S
WASKISH        SUNNY     57  36  44 NW3       30.32F
BIG FORK       SUNNY     57  27  30 NE6       30.31F
LONGVILLE      SUNNY     57  28  33 N7        30.29S
GRAND RAPIDS   SUNNY     57  27  30 N6        30.30S
CRANE LAKE     SUNNY     54  27  35 CALM      30.35S
COOK           SUNNY     54  28  37 NE6       30.32S
WALKER         FAIR      55  31  40 SE6       30.30S
$$
MNZ012-019>021-037-302300-
   Northeast Minnesota

CITY           SKY/WX    TMP DP  RH WIND       PRES   REMARKS
DULUTH         SUNNY     54  32  43 SE10      30.29R
HIBBING        SUNNY     57  27  31 NE9       30.29F
EVELETH        SUNNY     57  30  35 N5        30.30F
DULUTH HARBOR  SUNNY     50  39  66 NE9       30.32S
TWO HARBORS    SUNNY     54  36  50 E7        30.29S
SILVER BAY     SUNNY     52  30  43 E6        30.30S
GRAND MARAIS     N/A     42  32  67 SW5       30.35R
G MARAIS ARPRT SUNNY     46  28  49 S7        30.31R
$$
MNZ029>031-032-039>041-046>048-054>057-064-302300-
   West Central Minnesota

CITY           SKY/WX    TMP DP  RH WIND       PRES   REMARKS
FERGUS FALLS   SUNNY     57  36  44 E7        30.28F
WHEATON        SUNNY     54  37  54 N8        30.31F
MORRIS         SUNNY     61  37  41 N7        30.26F
ALEXANDRIA     SUNNY     59  33  37 N8        30.28S
ELBOW LAKE     FAIR      58  37  44 NE6       30.28S
WADENA         SUNNY     59  34  38 N12       30.27S
GLENWOOD       SUNNY     59  34  38 N8        30.27F
APPLETON       SUNNY     63  36  36 NE6       30.27S
BENSON         SUNNY     63  34  34 NE9       30.26F
ORTONVILLE     SUNNY     57  39  51 N12       30.28F
MADISON        SUNNY     59  39  47 N10       30.27F
WILLMAR        FAIR      63  37  39 NE8       30.27S
$$
MNZ033>034-036-042>043-049>051-058-059-302300-
   Central Minnesota

CITY           SKY/WX    TMP DP  RH WIND       PRES   REMARKS
ST CLOUD       SUNNY     62  37  39 N13G18    30.25F
SAUK CENTRE    FAIR      59  33  36 NE12      30.26F
PAYNESVILLE    SUNNY     57  37  47 N8        30.26F
AITKIN         SUNNY     61  27  27 E6        30.26F
PINE RIVER     SUNNY     57  34  41 NE7       30.30F
BRAINERD       SUNNY     59  29  31 CALM      30.28S
STAPLES        SUNNY     57  27  30 NE6       30.28S
LONG PRAIRIE   FAIR      57  32  38 N9        30.27S
LITTLE FALLS   SUNNY     59  30  33 NE5       30.26F
LITCHFIELD     SUNNY     63  36  36 NE10      30.25F
BUFFALO        SUNNY     62  32  32 N10       30.25S
MAPLE LAKE     SUNNY     63  40  42 N9        30.25S
$$
MNZ037-044-045-052-053-302300-
   East Central Minnesota

CITY           SKY/WX    TMP DP  RH WIND       PRES   REMARKS
PRINCETON      SUNNY     63  36  36 NE6       30.25S
MORA           SUNNY     59  30  33 NE5       30.27S
CAMBRIDGE      SUNNY     64  43  45 N7        30.23F
RUSH CITY      SUNNY     62  38  40 NE9       30.25S
MOOSE LAKE     SUNNY     61  32  33 CALM      30.24F
HINCKLEY       FAIR      63  34  34 N5        30.25S
CLOQUET        SUNNY     57  30  35 E5        30.27S
MCGREGOR       SUNNY     61  30  31 N7        30.28F
$$
MNZ071>073-080-081-089-090-097-098-302300-
   Southwest Minnesota

CITY           SKY/WX    TMP DP  RH WIND       PRES   REMARKS
MONTEVIDEO     SUNNY     63  37  39 NE9       30.27S
GRANITE FALLS  SUNNY     62  37  40 N12       30.26F
CANBY          SUNNY     59  42  53 NE12      30.28F
MARSHALL       SUNNY     59  37  44 NE13G18   30.24F
REDWOOD FALLS  SUNNY     63  35  35 NE9G18    30.24S
OLIVIA         SUNNY     59  32  36 N10G16    30.24S
PIPESTONE      SUNNY     59  39  47 NE10G17   30.24F
WINDOM         SUNNY     63  39  42 N13G20    30.23S
WORTHINGTON    SUNNY     61  39  44 N15G24    30.23S
JACKSON        SUNNY     61  43  51 N15G21    30.22F
TRACY          SUNNY     61  40  45 N14G20    30.24F
SLAYTON        SUNNY     59  39  48 N14G20    30.25S
$$
MNZ065>067-074>077-082>085-091>093-302300-
   South Central Minnesota

CITY           SKY/WX    TMP DP  RH WIND       PRES   REMARKS
MANKATO        SUNNY     63  41  45 NE12G18   30.21F
NEW ULM        SUNNY     63  39  42 NE10G17   30.22S
ST JAMES       SUNNY     64  43  45 NE8       30.23S
FAIRMONT       MOSUNNY   63  43  48 N13       30.21S
GLENCOE        SUNNY     62  43  48 N9        30.23S
FARIBAULT      MOSUNNY   61  46  59 NE9       30.22S
OWATONNA       MOSUNNY   61  45  55 NE12      30.21F
WASECA         MOSUNNY   59  43  55 N13G21    30.23S
ALBERT LEA     PTSUNNY   63  46  55 NE14      30.20S
$$
MNZ078>079-086>088-094>096-302300-
   Southeast Minnesota

CITY           SKY/WX    TMP DP  RH WIND       PRES   REMARKS
ROCHESTER      PTSUNNY   57  47  69 N15       30.22R
RED WING       MOSUNNY   63  43  48 E12       30.21F
STANTON        PTSUNNY   62  46  54 NE13      30.21S
DODGE CENTER   CLOUDY    57  45  62 NE13      30.21S
WINONA         CLOUDY    61  48  63 N8        30.19S
AUSTIN         CLOUDY    57  48  72 N8        30.20S
PRESTON        CLOUDY    56  48  73 NE14      30.19S
$$
ABBREVIATIONS USED IN REMARKS
   TC - TEMPERATURES IN CELSIUS
  WCI - WIND CHILL INDEX
   HX - HEAT INDEX
  VSB - VISIBILITY
$$



USA.gov is the U.S. government's official web portal to all federal, state and local government web resources and services.